Humidity-temperature Sensor

Selected Measurement Type: Relative Humidity

 
Relative Humidity [%]     6 entries per hour
Showing data from 12/14/2022 (00:00:00 Z) to 12/11/2022 (00:01:00 Z)
Previous Next [ Day | 3-Days | 7-Days ]
First Last
Prev [ Day | 3-Days | 7-Days ] Next
First Last

Start Time:     :
End Time:     :     
Time (in GMT) :00 :50 :40 :30 :20 :10
Previous Next [ Day | 3-Days | 7-Days ]
First Last
Prev [ Day | 3-Days | 7-Days ] Next
First Last


123 => good data
MM => data is determined as missing
-- => data not received/configured
Back to Top Back to Top
12/14/2022 00:00 to 23:10 92.28 92.18 91.95 91.68 91.19 90.80
12/13/2022 23:00 to 22:10 90.43 90.22 90.39 90.24 90.43 91.00
12/13/2022 22:00 to 21:10 91.31 91.64 91.79 91.79 91.81 91.70
12/13/2022 21:00 to 20:10 91.83 92.14 92.34 92.87 93.10 93.20
12/13/2022 20:00 to 19:10 93.10 92.63 92.05 91.60 91.17 90.51
12/13/2022 19:00 to 18:10 89.96 90.00 89.75 89.98 89.98 90.06
12/13/2022 18:00 to 17:10 90.55 90.76 90.78 91.00 91.23 91.29
12/13/2022 17:00 to 16:10 91.48 91.54 91.74 92.11 92.30 92.65
12/13/2022 16:00 to 15:10 92.61 92.55 92.53 92.79 92.90 93.04
12/13/2022 15:00 to 14:10 93.12 93.39 93.55 93.49 93.53 93.70
12/13/2022 14:00 to 13:10 93.66 93.82 94.19 94.09 94.21 94.23
12/13/2022 13:00 to 12:10 94.35 94.54 94.89 95.11 95.28 95.36
12/13/2022 12:00 to 11:10 95.51 95.40 95.53 95.55 95.75 95.83
12/13/2022 11:00 to 10:10 95.63 95.92 95.85 95.73 95.71 95.90
12/13/2022 10:00 to 9:10 96.04 96.16 96.16 96.22 96.43 96.35
12/13/2022 09:00 to 8:10 96.51 96.66 96.43 96.47 96.39 96.33
12/13/2022 08:00 to 7:10 96.29 96.29 96.31 96.27 96.22 96.16
12/13/2022 07:00 to 6:10 96.18 96.24 96.51 96.41 96.68 96.78
12/13/2022 06:00 to 5:10 96.88 97.05 97.03 97.05 96.98 96.96
12/13/2022 05:00 to 4:10 96.98 97.15 96.90 96.70 96.74 96.94
12/13/2022 04:00 to 3:10 96.94 96.90 96.92 97.17 97.21 97.05
12/13/2022 03:00 to 2:10 97.29 97.23 97.40 97.66 97.93 97.97
12/13/2022 02:00 to 1:10 98.09 98.05 98.09 97.93 97.97 97.72
12/13/2022 01:00 to 0:10 97.52 97.19 96.55 96.02 95.57 95.46
12/13/2022 00:00 to 23:10 95.32 93.98 92.59 91.66 91.33 91.13
12/12/2022 23:00 to 22:10 91.85 92.42 92.67 93.20 93.10 93.22
12/12/2022 22:00 to 21:10 93.22 93.22 93.29 93.20 93.14 93.18
12/12/2022 21:00 to 20:10 93.35 93.41 93.70 94.03 94.17 94.50
12/12/2022 20:00 to 19:10 94.87 95.34 95.48 96.35 96.94 97.50
12/12/2022 19:00 to 18:10 97.89 98.14 97.89 97.48 96.68 95.79
12/12/2022 18:00 to 17:10 94.44 93.43 93.27 93.27 93.64 93.70
12/12/2022 17:00 to 16:10 93.88 94.09 94.23 94.48 94.33 94.52
12/12/2022 16:00 to 15:10 94.54 94.48 94.42 94.56 94.68 94.60
12/12/2022 15:00 to 14:10 94.99 95.18 95.28 95.53 95.85 95.90
12/12/2022 14:00 to 13:10 96.16 96.24 96.51 96.68 96.86 97.21
12/12/2022 13:00 to 12:10 97.56 97.62 97.83 98.07 98.11 98.30
12/12/2022 12:00 to 11:10 98.36 98.48 98.69 98.79 98.92 99.06
12/12/2022 11:00 to 10:10 99.12 99.27 99.37 99.47 99.45 99.41
12/12/2022 10:00 to 9:10 99.37 99.33 99.27 99.20 99.16 99.06
12/12/2022 09:00 to 8:10 98.88 98.81 98.53 98.32 98.22 97.85
12/12/2022 08:00 to 7:10 97.54 97.38 96.98 96.64 96.35 96.08
12/12/2022 07:00 to 6:10 95.79 95.44 95.05 95.30 95.24 95.32
12/12/2022 06:00 to 5:10 95.32 95.26 95.28 95.22 95.30 95.34
12/12/2022 05:00 to 4:10 95.53 95.67 95.55 95.55 95.77 95.81
12/12/2022 04:00 to 3:10 95.92 96.08 96.14 96.20 96.39 96.47
12/12/2022 03:00 to 2:10 96.64 96.72 96.61 96.80 96.94 97.11
12/12/2022 02:00 to 1:10 97.07 97.19 97.46 97.56 97.79 98.14
12/12/2022 01:00 to 0:10 98.20 98.32 98.22 98.26 98.40 98.53
12/12/2022 00:00 to 23:10 98.28 98.40 98.34 98.30 98.16 98.03
12/11/2022 23:00 to 22:10 97.81 97.89 97.77 97.42 97.17 97.15
12/11/2022 22:00 to 21:10 97.42 97.79 98.11 98.42 98.65 98.96
12/11/2022 21:00 to 20:10 99.08 99.39 99.43 99.55 99.49 99.39
12/11/2022 20:00 to 19:10 99.43 99.20 99.08 99.04 99.04 99.12
12/11/2022 19:00 to 18:10 98.90 98.98 98.90 98.92 98.96 98.63
12/11/2022 18:00 to 17:10 98.40 98.11 97.54 97.03 96.64 96.55
12/11/2022 17:00 to 16:10 96.39 95.98 95.30 94.66 94.27 93.66
12/11/2022 16:00 to 15:10 93.47 93.00 92.16 92.32 92.71 93.66
12/11/2022 15:00 to 14:10 94.03 93.90 92.85 91.72 91.17 91.15
12/11/2022 14:00 to 13:10 91.33 91.48 91.62 91.79 92.20 92.44
12/11/2022 13:00 to 12:10 92.30 91.77 91.64 91.83 91.72 91.66
12/11/2022 12:00 to 11:10 91.66 91.62 91.66 91.79 91.81 91.81
12/11/2022 11:00 to 10:10 92.24 92.65 93.06 93.27 94.05 94.15
12/11/2022 10:00 to 9:10 94.42 94.48 94.70 94.52 94.64 94.79
12/11/2022 09:00 to 8:10 95.11 95.16 95.20 94.91 94.64 94.11
12/11/2022 08:00 to 7:10 93.35 92.90 92.63 92.48 92.32 92.38
12/11/2022 07:00 to 6:10 92.50 92.50 92.65 92.34 91.23 90.39
12/11/2022 06:00 to 5:10 90.72 91.29 91.72 92.61 92.59 92.48
12/11/2022 05:00 to 4:10 92.24 92.01 92.01 92.50 92.98 93.61
12/11/2022 04:00 to 3:10 94.23 94.42 94.37 94.48 94.56 94.42
12/11/2022 03:00 to 2:10 94.09 93.51 93.57 93.53 93.74 94.25
12/11/2022 02:00 to 1:10 95.07 95.73 96.24 96.72 96.92 97.07
12/11/2022 01:00 to 0:10 97.09 97.27 97.33 97.64 97.85 98.07